Weather in Pashkovo

Russia / Jewish Autonomous Oblast     48°53′16″N   130°39′06″E
temp.,
°C
wind,
m/s
gust,
m/s
humid.,
%
clouds,
%
prec.,
mm/h
press.,
hPa
HPBL,
m
17 january, mon
mon1701:00−19wsw1399100 0.3 1024148
04:00−19wsw1399100 0.6 1023104
07:00−20wsw12100100 0.3 102495
10:00−20w1398100 0.5 1025187
13:00−17wnw2388100 0.2 1025527
16:00−15wnw3589100 0.3 1024559
19:00−18wnw3797100 0.1 1026265
22:00−19w2598100 0.3 1027210
18 january, tue
tue1801:00−20w2499100 0.2 1028176
04:00−20w2499100 0.4 1029233
07:00−21w2499100 0.3 1030250
10:00−22w2497100 0.4 1032251
13:00−20w2492100 0.1 1032443
16:00−19wnw3491100 0.1 1032472
19:00−26w11100100 0.0 103410
22:00−28wsw00100100 0.1 103413
19 january, wed
wed1901:00−30sw00100100 0.1 10349
04:00−32ssw01100100 0.1 103410
07:00−33ssw00100100 0.1 103511
10:00−32wsw11100100 0.1 103547
13:00−25w2495100 0.0 1034317
16:00−22w359094 0.1 1032409
19:00−29ssw0010021 0.0 10339
22:00−32e1110073 0.0 10339
20 january, thu
thu2001:00−33e1110091 0.0 10339
04:00−33e1110087 0.0 10339
07:00−34ese0010098 0.0 10349
10:00−32wsw00100100 0.0 103529
13:00−25wsw2296100 0.0 1034243
16:00−22w2393100 0.0 1034343
19:00−30s0010068 0.0 10369
22:00−32e1110084 0.0 10379
21 january, fri
fri2101:00−33e1110095 0.0 10389
04:00−34e0010096 0.0 10389
07:00−34e1110092 0.0 10389
10:00−31ssw0010077 0.0 103827
13:00−24w129286 0.0 1037247
16:00−21w239185 0.0 1036319
19:00−29sse1110074 0.0 10379
22:00−31e1110092 0.0 10379